TIME,DELAY(SENSOR),PRES,OXYGEN,RAWTEMP,T(OPTODE),TCPHASE,FLUOR,BETA(BETA700),BETA(BETA412),BETA(BETA440),CDOM,C(CSC),ED(ED412.20),ED(ED444.00),ED(ED489.60),ED(ED554.30),LU(LU412.10),LU(LU443.90),LU(LU489.70),LU(LU554.70),COMP,TILTX,TILTY,CHECK
1363233922,5807,892.5399780273438000,35.8102302551269500,563.1563110351562000,4.3880348205566410,56.1823005676269500,54,101,100,78,82,15513,0,0,0,0,2147122514,2147777517,2147572077,2147568118,3373,2,13,13324
1363237518,5808,967.4199829101562000,40.2027511596679700,567.7686157226562000,4.2448811531066895,55.5586204528808600,54,97,100,78,80,15511,0,0,0,0,2147124864,2147772608,2147570697,2147570267,3211,2,13,28319
1363241118,5812,978.3699951171875000,40.5803794860839840,568.3192138671875000,4.2277808189392090,55.5076293945312500,55,101,100,79,81,15512,0,0,0,0,2147122258,2147769289,2147575698,2147566619,3145,2,13,519
1363244718,5812,974.7299804687500000,40.9153518676757800,570.5106201171875000,4.1596951484680180,55.4884605407714840,55,98,100,78,82,15509,0,0,0,0,2147123977,2147772324,2147577709,2147567186,147,2,13,56392
1363248318,5808,976.0200195312500000,39.6379394531250000,570.8947143554688000,4.1477551460266110,55.6771392822265600,55,99,100,78,83,15506,0,0,0,0,2147124534,2147768219,2147574326,2147569353,48,2,13,60703
1363251918,5810,980.0999755859375000,40.3097801208496100,571.1964111328125000,4.1383762359619140,55.5839881896972660,56,100,99,77,82,15508,0,0,0,0,2147123136,2147773339,2147574994,2147568676,62,2,13,10769
1363255518,5808,979.1500244140625000,41.7608489990234400,571.2299194335938000,4.1373372077941895,55.3662300109863300,55,97,99,78,82,15507,0,0,0,0,2147123446,2147776923,2147572406,2147568173,489,2,13,34649
1363259118,5810,971.0800170898438000,42.3322792053222660,572.7661743164062000,4.0895671844482420,55.3037605285644500,54,96,99,78,82,15481,0,0,0,0,2147125046,2147774052,2147573010,2147565869,346,3,13,47109
1363262718,5807,966.0800170898438000,42.3702392578125000,573.5070800781250000,4.0665249824523930,55.3073997497558600,55,97,100,78,81,15481,0,0,0,0,2147122441,2147776265,2147573897,2147570011,303,3,13,8628
1363266318,5807,972.2600097656250000,41.3421287536621100,575.0753784179688000,4.0177288055419920,55.4737205505371100,55,99,100,78,82,15484,0,0,0,0,2147122313,2147774198,2147572059,2147567899,249,3,13,47578
1363269918,5809,984.0700073242188000,42.3816719055175800,571.9171142578125000,4.1159729957580570,55.2831993103027340,55,97,101,78,81,15483,0,0,0,0,2147124836,2147775131,2147568713,2147567405,119,3,13,12129
1363273518,5810,985.6699829101562000,41.6693382263183600,571.5374755859375000,4.1277728080749510,55.3881111145019500,55,96,100,78,82,15483,0,0,0,0,2147124150,2147775259,2147574811,2147566189,67,3,13,52704
1363277118,5809,990.2700195312500000,41.8347396850585940,571.4852294921875000,4.1293997764587400,55.3643417358398440,54,98,100,78,81,15482,0,0,0,0,2147125824,2147773988,2147576374,2147566948,3279,2,13,51118
1363280718,5809,985.5700073242188000,41.0109291076660160,571.3270263671875000,4.1343150138854980,55.4772605895996100,55,98,100,78,82,15483,0,0,0,0,2147124086,2147771483,2147576219,2147567478,432,2,13,30695
1363284318,5810,991.5800170898438000,41.5891418457031250,571.2952880859375000,4.1353020668029785,55.3983917236328100,55,99,100,77,83,15484,0,0,0,0,2147123126,2147772315,2147576338,2147568128,11,2,13,5814
1363287918,5810,996.4000244140625000,40.9166603088378900,571.2357788085938000,4.1371521949768070,55.4892311096191400,54,99,100,77,83,15489,0,0,0,0,2147120941,2147771373,2147574646,2147571849,412,2,13,30161
1363291518,5810,990.1500244140625000,39.1030311584472660,570.9030151367188000,4.1474971771240230,55.7565002441406250,54,98,100,77,82,15486,0,0,0,0,2147121316,2147771254,2147573302,2147569581,3370,2,13,41301
1363295118,5811,990.2299804687500000,41.5994110107421900,571.6613769531250000,4.1239190101623535,55.3981018066406250,55,97,100,77,82,15485,0,0,0,0,2147122230,2147770843,2147575350,2147570194,3356,2,13,15161
1363298718,5810,988.4400024414062000,41.5059814453125000,571.4766235351562000,4.1296648979187010,55.4074211120605500,56,98,100,79,83,15482,0,0,0,0,2147124745,2147770998,2147574802,2147570048,130,2,13,37540
1363302318,5809,978.0900268554688000,42.1778602600097660,572.4578247070312000,4.0991587638854980,55.3176689147949200,54,98,100,77,82,15489,0,0,0,0,2147123062,2147771913,2147575707,2147569344,384,2,13,57975
1363305918,5810,978.9400024414062000,42.8307991027832000,574.1295776367188000,4.0471568107604980,55.2462196350097660,55,99,100,79,82,15486,0,0,0,0,2147125449,2147775149,2147575140,2147566089,100,2,13,770
1363309518,5809,985.0599975585938000,43.3314018249511700,573.6724243164062000,4.0613799095153810,55.1659507751464840,54,98,100,78,82,15487,0,0,0,0,2147123190,2147776054,2147574189,2147569920,54,3,13,50945
1363313118,5808,984.1799926757812000,42.2547912597656250,573.0109252929688000,4.0819568634033200,55.3165016174316400,55,98,100,77,81,15481,0,0,0,0,2147126784,2147774601,2147578532,2147571739,3422,2,13,64992
1363316718,5810,981.2199707031250000,42.3820495605468750,573.2399902343750000,4.0748329162597660,55.3000602722168000,54,97,99,78,81,15482,0,0,0,0,2147124214,2147772754,2147572150,2147566427,3491,2,13,28624
1363320318,5812,993.0200195312500000,42.6391296386718750,572.7490844726562000,4.0900969505310060,55.2601814270019500,55,99,99,79,82,15481,0,0,0,0,2147124928,2147776228,2147577801,2147568713,408,2,13,43950
1363323918,5812,990.7700195312500000,41.5640411376953100,571.4407958984375000,4.1307787895202640,55.4006690979003900,54,98,101,79,83,15470,0,0,0,0,2147123876,2147771474,2147580571,2147566893,56,2,13,29784
1363327518,5810,984.7899780273438000,41.3894691467285160,571.6212158203125000,4.1251702308654785,55.4295501708984400,54,100,100,78,81,15469,0,0,0,0,2147123008,2147772269,2147576374,2147573220,1094,2,13,20549
1363331118,5814,985.2600097656250000,41.9732208251953100,572.6005249023438000,4.0947189331054690,55.3538703918457000,54,99,99,78,81,15468,0,0,0,0,2147125659,2147771712,2147572406,2147568283,46,2,13,28712
1363334718,5809,991.9299926757812000,41.8919486999511700,571.6126098632812000,4.1254367828369140,55.3551483154296900,55,99,100,78,81,15472,0,0,0,0,2147126052,2147772032,2147573293,2147569078,3437,2,13,3348
1363338318,5809,991.7999877929688000,42.0095596313476560,572.7078247070312000,4.0913829803466800,55.3504714965820300,56,98,98,78,81,15469,0,0,0,0,2147121792,2147776758,2147573513,2147569673,104,2,13,23778
1363341918,5809,987.5000000000000000,41.8030090332031250,572.9583129882812000,4.0835928916931150,55.3838882446289060,54,97,99,77,82,15469,0,0,0,0,2147124187,2147774454,2147577024,2147566272,235,2,13,11303
1363345518,5809,990.8800048828125000,41.9641494750976560,572.9802856445312000,4.0829071998596190,55.3582496643066400,54,98,100,77,80,15467,0,0,0,0,2147117878,2147772864,2147571410,2147569545,115,2,13,31573
1363349118,5811,990.5900268554688000,41.6972618103027340,572.7321777343750000,4.0906238555908200,55.3957710266113300,55,98,100,79,83,15464,0,0,0,0,2147123282,2147776640,2147575652,2147569444,335,2,13,58531
1363352718,5812,987.1599731445312000,42.0449981689453100,572.4157714843750000,4.1004657745361330,55.3375892639160160,55,129,101,78,82,15464,0,0,0,0,2147122907,2147774692,2147571300,2147568795,260,2,13,61529
1363356318,5808,983.5100097656250000,41.9201202392578100,572.5582885742188000,4.0960311889648440,55.3600387573242200,54,98,100,76,81,15463,0,0,0,0,2147123163,2147774043,2147574683,2147569298,341,2,13,45098
1363359918,5811,989.2100219726562000,42.0247497558593750,572.8060913085938000,4.0883269309997560,55.3440704345703100,54,100,100,79,82,15463,0,0,0,0,2147124288,2147773577,2147576018,2147567433,346,2,13,37476
1363363518,5809,1001.1099853515625000,42.2714195251464840,572.2581176757812000,4.1053681373596190,55.3062896728515600,54,98,99,80,82,15454,0,0,0,0,2147119442,2147772004,2147575140,2147564498,47,2,13,2986
1363367118,5814,1000.0999755859375000,41.3498611450195300,571.5189819335938000,4.1283469200134280,55.4301300048828100,55,97,100,78,83,15457,0,0,0,0,2147121664,2147772123,2147577307,2147566939,3303,3,13,10231
1363370718,5809,1000.1400146484375000,40.7864913940429700,571.3218994140625000,4.1344761848449710,55.5094795227050800,55,97,100,77,82,15449,0,0,0,0,2147123474,2147769060,2147574848,2147569746,199,2,13,19726
1363374318,5809,1001.1599731445312000,41.1233711242675800,571.5333251953125000,4.1279048919677730,55.4674491882324200,55,101,100,78,83,15454,0,0,0,0,2147121819,2147770523,2147578642,2147566427,3554,2,13,53967
1363377918,5810,991.0800170898438000,40.7979087829589840,571.6010131835938000,4.1257991790771480,55.5118904113769500,55,98,100,79,82,15445,0,0,0,0,2147128868,2147769974,2147571922,2147571693,153,2,13,23
1363379156,5809,993.0999755859375000,41.4090995788574200,571.7717895507812000,4.1204891204833980,55.4275894165039060,55,98,100,78,83,15443,0,0,0,0,2147121819,2147772864,2147573924,2147568585,228,3,13,5060
